Weather in Medvezhye

Russia / Oryol Oblast     52°39′45″N   37°38′14″E
temp.,
°C
wind,
m/s
gust,
m/s
humid.,
%
clouds,
%
prec.,
mm/h
press.,
hPa
HPBL,
m
13 may, thu
thu1300:00+7e499384 0.0 1017184
03:00+8ese5109192 0.0 1017325
06:00+8ese51292100 0.0 1017368
09:00+8ese2496100 1.6 1016203
12:00+13se7982100 3.6 1016750
15:00+14sse697773 4.0 10151108
18:00+15sse478185 0.3 1014523
21:00+11sse33910 0.3 101527
14 may, fri
fri1400:00+10se3391100 0.0 101644
03:00+10se3492100 0.0 101650
06:00+11ese3795100 0.0 1015154
09:00+17se5981100 0.1 1015463
12:00+20se7106994 0.0 1013960
15:00+21sse8137132 0.9 10121348
18:00+19sse71479100 0.5 1011714
21:00+16sse3688100 0.8 101091
15 may, sat
sat1500:00+15se3795100 5.8 1010147
03:00+15s3595100 7.0 1010103
06:00+15ssw3593100 0.0 1010113
09:00+17sw5779100 0.0 1011465
12:00+20sw576758 0.0 10121170
15:00+21ssw585421 0.0 10122073
18:00+19sw477334 0.4 1012698
21:00+15ssw348591 0.6 101355
16 may, sun
sun1600:00+13s33895 0.0 101341
03:00+12ssw338969 0.0 101443
06:00+13sw238932 0.0 101582
09:00+17w23725 0.0 1015443
12:00+21sw23590 0.0 10151049
15:00+23s125284 0.0 10141668
18:00+22ene126277 0.0 101396
21:00+17ne347554 0.0 101456
17 may, mon
mon1700:00+16ene4108380 0.1 1013199
03:00+14ene5118989 0.1 1013216
06:00+15e5128756 0.0 1012252
09:00+20ese687170 0.0 1012356
12:00+24ese7955100 0.0 1011759
15:00+24ese6956100 0.0 1010946
18:00+23ese713634 0.0 1009653
21:00+19ese61674100 0.0 1010412